Wind_Speed
36 35 34 32 32 32 34 34 33 35 33 33 34 32 31 30 28 25 23 22 21 21 21 20 20 19 19 20 21 21 22 23 23 23 23 24 24 25 26 26 27 28 29 30
38 37 36 35 35 35 36 35 35 36 35 35 36 34 32 32 29 27 26 25 24 24 24 24 23 22 22 22 23 24 24 25 25 25 26 26 27 27 27 28 29 30 31 32
41 40 39 38 37 38 38 38 37 37 38 37 38 36 33 32 32 30 28 27 27 27 27 27 26 25 25 26 26 27 27 27 28 28 29 29 30 30 30 31 32 33 34 34
46 44 43 42 40 41 41 40 39 40 41 40 41 41 34 34 34 31 30 30 30 30 30 30 30 29 29 29 30 30 30 31 31 32 32 32 33 33 33 34 34 35 36 37
49 48 46 44 43 43 43 43 42 43 44 44 42 45 38 35 35 33 32 33 34 34 34 34 34 34 33 33 34 34 34 34 35 35 35 36 37 37 37 36 36 37 38 39
53 52 51 48 47 47 46 46 46 47 48 47 44 47 44 38 37 36 35 35 37 38 38 38 38 39 38 38 38 38 38 38 39 40 40 40 41 41 41 40 38 39 40 41
55 55 53 52 50 49 49 49 50 50 51 50 48 49 48 45 41 40 39 39 39 40 41 42 43 43 43 43 42 42 43 43 43 44 44 44 45 45 45 44 42 41 42 43
55 56 55 54 52 50 50 51 52 52 54 53 54 53 49 50 48 45 44 44 44 44 45 46 46 47 47 47 47 47 47 47 47 47 48 48 48 48 48 47 46 44 44 45
55 56 57 55 54 54 53 54 52 53 56 58 58 55 52 51 52 51 50 49 49 48 48 49 50 50 50 50 50 50 51 51 51 51 51 51 51 50 50 50 49 47 47 47
54 55 58 58 56 56 55 53 52 55 58 60 61 58 55 55 56 57 57 56 54 53 52 52 53 53 53 53 53 53 53 54 54 54 54 54 53 52 51 51 51 50 49 49
51 54 58 59 58 56 54 54 56 57 58 60 63 61 57 57 58 59 60 59 58 57 55 54 53 53 54 54 55 55 55 56 56 56 56 55 54 53 53 52 52 52 51 51
50 53 56 57 57 56 56 56 57 59 60 62 64 63 59 58 59 60 61 60 60 60 59 58 56 56 56 56 56 56 57 57 57 57 56 55 54 53 52 52 51 52 52 52
51 53 54 56 58 58 57 56 56 57 59 61 63 61 59 59 60 60 61 61 62 62 62 61 60 60 59 58 58 57 57 56 56 55 54 53 52 51 51 51 51 51 51 52
52 53 54 54 56 57 57 56 55 56 59 61 62 59 56 57 58 59 60 61 62 62 62 61 61 61 60 59 58 57 55 55 54 53 52 51 50 50 50 50 50 51 51 52
54 54 54 54 55 57 58 58 57 58 59 60 59 58 54 55 57 59 59 60 60 60 60 59 58 59 59 59 58 57 56 55 54 52 51 50 50 50 50 50 51 52 53 53
55 55 56 56 56 57 59 60 60 60 60 61 60 58 53 55 56 58 59 60 60 60 59 59 58 59 59 59 59 58 57 56 55 54 53 53 52 52 52 52 53 53 53 54
56 56 57 58 58 60 63 60 60 61 61 61 62 59 56 57 58 59 60 61 62 62 62 61 60 60 60 60 60 60 59 59 58 58 57 57 57 56 56 56 56 56 56 56
58 58 59 60 61 64 63 61 62 63 63 63 62 61 60 61 61 61 62 63 64 64 64 64 64 63 63 63 63 62 62 62 62 62 62 62 62 61 60 60 59 59 59 59
58 58 59 60 62 66 65 62 61 62 63 62 63 63 63 64 64 63 64 65 66 67 67 67 67 67 67 67 67 67 67 67 66 66 65 65 65 65 65 64 63 62 62 62
60 60 61 62 64 66 64 61 61 63 66 64 64 64 65 65 66 66 65 66 67 68 69 69 70 70 71 71 71 71 71 71 70 70 69 69 68 68 68 67 66 66 65 64
62 62 63 63 64 66 64 63 63 66 67 66 67 67 68 68 69 69 69 69 69 70 70 71 71 71 72 72 72 73 73 73 73 73 72 71 70 69 69 69 68 68 67 66
64 64 65 65 68 68 63 65 67 69 69 69 69 69 70 70 70 71 71 72 72 73 73 73 72 72 72 73 73 73 73 73 73 73 73 73 72 71 70 70 70 70 69 68
67 66 66 67 68 67 67 68 70 70 71 71 71 71 72 72 72 72 73 74 75 75 76 76 77 76 76 76 76 75 75 75 74 73 73 73 73 72 72 72 71 70 69 68
69 68 68 69 68 68 68 68 70 71 72 72 73 74 74 75 75 75 75 75 76 76 76 77 77 77 77 76 76 75 75 75 74 74 74 73 72 71 70 69 68 66 65 65
70 70 71 72 70 70 70 69 70 72 73 73 74 74 75 75 76 77 77 77 77 77 76 76 76 76 76 75 75 74 73 72 71 70 69 68 67 67 66 64 63 62 61 61
68 68 70 71 70 71 71 71 71 72 73 73 74 74 74 75 75 76 76 76 76 76 75 75 74 74 73 73 72 71 69 69 68 66 65 64 64 63 62 61 61 61 60 60
Wind_Direction
236 237 238 240 240 240 240 241 241 242 240 240 241 239 239 242 242 243 246 250 256 263 270 275 280 285 290 296 301 305 310 313 314 314 313 311 308 304 299 293 289 287 285 284
239 240 241 241 241 242 244 244 243 244 244 243 243 241 239 243 244 243 245 250 256 262 268 273 277 282 287 291 296 300 304 308 310 310 311 311 308 304 298 293 288 285 284 284
241 241 242 242 243 244 244 245 244 245 246 245 247 244 241 242 244 245 246 250 256 262 267 272 276 279 283 288 292 296 299 302 304 305 307 308 307 304 299 292 288 285 284 284
242 242 243 243 244 245 246 246 246 246 248 247 248 250 240 243 245 246 249 252 256 261 266 271 275 278 281 284 288 292 294 297 300 301 303 304 305 303 298 294 290 286 283 283
243 244 245 245 245 246 247 248 248 247 248 249 250 255 249 244 247 247 248 253 257 261 265 269 273 277 279 282 286 288 291 293 295 297 299 301 302 300 298 295 291 286 283 282
243 244 245 245 245 246 248 248 248 248 249 251 252 256 257 250 248 248 247 251 257 262 265 268 271 275 278 281 283 285 287 290 292 294 295 297 299 298 297 295 291 286 283 283
243 245 245 246 246 246 248 249 250 250 251 253 254 255 259 259 254 252 251 251 253 258 263 267 270 273 276 279 281 282 284 286 288 290 292 294 295 295 294 293 290 286 283 282
243 244 245 246 246 247 247 249 251 253 253 253 253 255 257 261 262 260 258 257 257 258 261 264 267 270 273 275 277 279 281 283 285 287 289 291 292 292 291 290 288 285 282 281
245 246 245 245 245 246 246 248 251 253 254 254 253 255 257 261 264 265 264 263 263 263 263 265 267 268 271 273 275 277 279 281 283 284 286 288 288 288 288 287 286 284 281 279
243 246 247 246 246 246 248 249 247 250 253 255 256 256 258 259 262 265 266 267 267 267 267 267 268 269 270 271 273 275 276 278 280 282 284 286 286 286 285 284 283 282 280 279
241 244 247 248 248 249 248 249 250 252 253 256 257 257 258 261 264 266 268 270 272 273 273 272 271 271 271 272 273 274 276 278 279 281 283 284 284 284 283 282 281 280 279 279
242 244 246 249 250 250 250 249 250 251 253 255 257 258 260 262 265 267 270 272 273 275 276 277 276 276 275 275 275 276 277 278 279 280 281 281 281 282 282 281 279 278 278 278
242 244 246 247 249 250 251 251 252 253 255 256 258 259 260 262 265 267 269 270 272 273 275 276 278 278 278 278 278 278 278 279 279 280 280 280 280 280 279 279 278 277 277 277
244 245 245 247 251 253 254 253 253 254 255 257 259 261 260 263 265 266 266 267 269 271 273 275 277 278 279 279 279 279 279 279 279 279 279 279 278 278 278 278 277 277 277 278
245 247 247 247 248 251 253 254 255 256 258 260 261 261 261 262 264 266 267 268 269 270 271 273 274 276 277 278 279 279 279 279 279 279 278 278 278 278 278 277 277 277 277 278
245 247 248 248 248 248 250 253 256 257 259 261 261 261 262 262 263 264 266 267 268 269 270 271 272 273 275 276 277 278 278 279 279 279 279 278 278 278 278 278 278 278 278 278
245 247 248 248 248 249 250 252 255 258 260 262 263 263 261 259 260 262 264 265 266 268 269 270 271 272 272 273 274 275 277 278 278 279 279 279 279 279 279 279 279 279 279 279
246 247 249 250 250 250 251 252 254 257 258 261 263 263 261 260 260 261 263 264 265 267 268 269 270 271 272 273 274 275 276 277 278 278 279 280 280 280 280 280 280 280 280 280
246 248 250 251 252 253 253 254 257 258 258 259 261 262 262 262 262 263 264 265 266 267 268 269 270 271 272 273 274 275 275 276 277 278 278 279 280 281 281 281 280 280 280 280
249 250 252 253 255 255 254 255 257 259 260 260 262 264 264 264 264 264 265 267 267 268 269 270 271 272 273 273 274 275 276 276 277 278 279 279 280 281 281 281 281 280 280 280
251 253 255 257 260 260 257 258 260 263 264 264 265 266 267 266 267 266 266 267 268 269 270 270 271 273 274 274 275 275 276 276 277 277 278 279 280 280 280 281 281 280 280 280
253 255 256 259 261 263 262 262 263 265 266 267 267 268 269 269 269 269 269 269 269 270 270 271 272 273 273 274 275 276 276 277 277 278 278 278 279 279 279 280 280 280 279 279
255 257 259 260 263 265 265 265 266 268 269 269 269 270 270 270 271 271 271 271 271 272 273 273 273 274 274 275 276 276 276 277 277 278 278 279 279 279 279 279 279 278 278 278
256 257 260 262 264 266 267 267 268 269 270 271 272 272 273 273 273 273 273 273 274 274 274 275 275 275 275 276 277 277 277 277 277 278 278 278 278 278 278 278 277 277 277 277
257 259 261 263 264 265 266 267 268 269 270 271 271 272 273 273 274 274 274 274 275 275 275 275 275 275 275 276 276 277 277 277 277 277 277 276 276 275 275 275 275 275 276 276
259 261 263 264 264 265 265 266 267 268 269 270 271 272 272 273 273 273 273 273 274 274 274 273 274 274 274 275 275 275 275 274 274 274 273 273 273 273 273 273 273 274 275 275
Height
5794 5799 5802 5806 5809 5812 5813 5816 5819 5821 5825 5828 5830 5834 5837 5839 5842 5845 5847 5848 5850 5850 5850 5851 5851 5851 5851 5851 5850 5850 5849 5847 5846 5845 5844 5842 5841 5839 5838 5836 5835 5833 5832 5831
5788 5792 5796 5798 5801 5804 5807 5810 5813 5815 5818 5821 5823 5827 5831 5834 5837 5840 5842 5844 5845 5845 5845 5846 5846 5847 5846 5846 5845 5845 5844 5843 5841 5840 5839 5837 5836 5834 5832 5830 5828 5827 5825 5824
5780 5785 5788 5791 5794 5797 5800 5803 5806 5809 5810 5814 5816 5820 5826 5828 5830 5834 5837 5838 5839 5840 5840 5840 5840 5841 5841 5841 5840 5839 5838 5837 5836 5834 5833 5831 5830 5828 5826 5824 5822 5820 5818 5817
5771 5776 5779 5783 5787 5789 5792 5796 5799 5801 5803 5805 5808 5809 5819 5822 5824 5828 5831 5832 5833 5833 5833 5833 5833 5834 5835 5834 5833 5833 5831 5830 5829 5827 5826 5825 5823 5821 5820 5817 5815 5813 5811 5809
5762 5767 5771 5775 5779 5781 5784 5787 5790 5793 5794 5797 5801 5801 5809 5816 5818 5822 5825 5825 5825 5826 5826 5826 5826 5826 5827 5827 5826 5825 5824 5823 5822 5820 5819 5817 5816 5814 5811 5810 5808 5805 5803 5800
5752 5757 5761 5766 5770 5772 5776 5778 5780 5782 5785 5789 5794 5794 5796 5806 5811 5814 5817 5818 5818 5818 5818 5818 5818 5818 5818 5819 5818 5817 5816 5815 5813 5812 5810 5809 5807 5804 5802 5801 5799 5797 5794 5791
5741 5745 5751 5756 5760 5763 5766 5769 5771 5773 5776 5781 5784 5785 5789 5794 5800 5804 5807 5809 5810 5810 5809 5809 5809 5809 5809 5809 5809 5808 5807 5806 5804 5803 5801 5799 5797 5795 5793 5791 5789 5787 5785 5782
5729 5734 5741 5745 5749 5753 5756 5758 5762 5764 5766 5771 5772 5776 5784 5784 5787 5792 5796 5798 5800 5800 5801 5801 5800 5800 5799 5799 5798 5798 5797 5796 5794 5793 5791 5789 5787 5785 5782 5780 5778 5776 5774 5771
5718 5723 5728 5733 5737 5740 5744 5747 5751 5751 5753 5757 5761 5769 5774 5776 5777 5780 5783 5785 5787 5788 5789 5789 5789 5789 5789 5788 5788 5787 5786 5785 5783 5782 5780 5778 5776 5774 5771 5769 5766 5764 5762 5760
5707 5710 5714 5719 5724 5729 5733 5737 5738 5738 5740 5743 5750 5758 5765 5767 5767 5767 5769 5770 5772 5775 5776 5776 5776 5776 5776 5776 5776 5775 5774 5773 5771 5770 5768 5766 5764 5762 5759 5756 5754 5752 5749 5747
5696 5698 5702 5706 5712 5718 5722 5725 5726 5727 5730 5733 5736 5749 5755 5755 5755 5755 5756 5756 5757 5758 5759 5760 5762 5762 5762 5763 5762 5762 5761 5760 5758 5757 5755 5753 5751 5749 5746 5744 5741 5739 5736 5734
5685 5687 5690 5696 5700 5703 5706 5711 5713 5714 5717 5720 5723 5737 5744 5745 5743 5742 5742 5743 5744 5743 5743 5744 5745 5746 5746 5747 5747 5747 5747 5746 5744 5743 5741 5739 5737 5735 5733 5730 5728 5725 5723 5720
5672 5675 5679 5683 5687 5690 5693 5698 5700 5702 5704 5706 5710 5726 5732 5732 5730 5730 5730 5730 5730 5729 5730 5729 5729 5728 5729 5730 5730 5731 5731 5730 5729 5728 5727 5725 5723 5721 5719 5716 5714 5712 5709 5707
5659 5663 5668 5673 5675 5676 5680 5684 5687 5689 5689 5693 5699 5711 5719 5718 5715 5715 5715 5715 5716 5716 5716 5716 5715 5713 5713 5713 5713 5714 5714 5714 5713 5713 5712 5710 5708 5707 5705 5703 5700 5698 5696 5694
5646 5650 5655 5659 5662 5663 5665 5669 5673 5675 5677 5680 5688 5694 5705 5704 5701 5700 5700 5700 5701 5702 5702 5702 5701 5700 5698 5697 5697 5698 5698 5698 5697 5697 5697 5695 5694 5692 5691 5689 5687 5684 5682 5680
5633 5636 5640 5645 5649 5649 5651 5657 5660 5662 5664 5666 5670 5679 5692 5688 5687 5686 5685 5685 5686 5687 5687 5688 5688 5687 5686 5684 5683 5683 5683 5682 5682 5682 5681 5680 5678 5677 5676 5674 5672 5670 5668 5666
5620 5623 5626 5630 5633 5632 5637 5649 5649 5649 5651 5653 5654 5666 5672 5670 5671 5671 5670 5670 5671 5671 5672 5672 5672 5672 5671 5671 5670 5669 5668 5667 5666 5666 5665 5664 5662 5662 5660 5659 5657 5655 5653 5651
5607 5609 5610 5613 5615 5615 5631 5636 5635 5635 5637 5638 5639 5647 5652 5652 5654 5655 5655 5654 5655 5656 5656 5656 5656 5656 5656 5655 5654 5654 5653 5652 5651 5650 5648 5647 5645 5644 5643 5642 5641 5639 5637 5635
5593 5595 5595 5597 5597 5600 5615 5623 5622 5619 5621 5624 5624 5628 5632 5634 5636 5639 5638 5638 5639 5640 5639 5640 5639 5639 5639 5638 5637 5637 5636 5635 5634 5633 5631 5630 5628 5627 5626 5624 5623 5621 5619 5617
5579 5580 5581 5582 5582 5586 5605 5609 5606 5603 5602 5609 5609 5611 5614 5616 5617 5623 5622 5622 5622 5622 5622 5622 5622 5622 5621 5620 5619 5618 5618 5617 5616 5614 5613 5612 5610 5609 5607 5605 5604 5602 5600 5599
5566 5565 5566 5568 5567 5570 5589 5593 5589 5586 5590 5593 5592 5593 5595 5597 5599 5603 5604 5604 5604 5604 5604 5604 5604 5604 5603 5602 5600 5600 5599 5598 5596 5595 5594 5593 5591 5590 5588 5586 5585 5583 5581 5579
5550 5551 5553 5555 5553 5561 5574 5573 5571 5569 5571 5573 5574 5575 5576 5578 5579 5582 5584 5585 5585 5585 5585 5584 5585 5585 5584 5582 5581 5580 5579 5578 5576 5575 5574 5573 5572 5570 5569 5567 5565 5563 5561 5560
5533 5538 5539 5541 5544 5548 5553 5554 5552 5551 5553 5554 5555 5556 5557 5558 5560 5562 5564 5565 5565 5565 5565 5565 5564 5565 5564 5562 5561 5560 5559 5558 5556 5555 5554 5552 5551 5549 5548 5546 5545 5543 5541 5539
5518 5522 5523 5525 5529 5532 5533 5533 5533 5533 5534 5535 5535 5536 5536 5537 5539 5541 5542 5544 5545 5545 5544 5543 5543 5543 5542 5541 5540 5539 5538 5536 5535 5534 5533 5532 5530 5529 5527 5526 5524 5522 5521 5519
5503 5507 5507 5508 5513 5513 5514 5515 5515 5514 5514 5515 5516 5516 5516 5516 5518 5519 5520 5522 5522 5523 5523 5522 5521 5521 5520 5519 5518 5517 5516 5515 5514 5513 5512 5511 5509 5508 5507 5506 5504 5503 5502 5500
5491 5491 5489 5490 5495 5492 5495 5497 5495 5494 5495 5496 5496 5498 5498 5496 5497 5498 5499 5500 5500 5500 5500 5500 5499 5499 5498 5498 5497 5496 5495 5494 5493 5493 5492 5491 5490 5489 5488 5487 5486 5484 5483 5482